Location: De Har
(53.3413°N, 6.6858°E)
Time: 20:50:59
(UTC+00:00)

BREEZE-M DEB (TANK) - Pass Details

Date: 22 April 2026
Orbit: 285 x 16063 km, 49.4° (Epoch: 21 May)

Event Time Altitude Azimuth Distance (km) Brightness Sun altitude
Exits shadow 02:48:37 19° 250° (WSW) 1,124 3.8 -12.3°
Maximum altitude 02:50:29 46° 183° (S) 826 3.4 -12.0°
Drops below altitude 10° 02:57:29 10° 112° (ESE) 3,805 7.5 -11.2°
Sets 03:03:39 0° 109° (ESE) 6,526 8.8 -10.5°
